AirNav   ProFlight Series 2 Aviation Headset
 
 1071 users online  

4PN3 Gallatin Fuel Heliport
Masontown, Pennsylvania, USA

GOING TO MASONTOWN?


FAA INFORMATION EFFECTIVE 16 JULY 2020

Location

FAA Identifier: 4PN3
Lat/Long: 39-51-59.2740N 079-57-02.1970W
39-51.987900N 079-57.036617W
39.8664650,-79.9506103
(estimated)
Elevation: 980 ft. / 299 m (estimated)
Variation: 07W (1985)
From city: 2 miles NW of MASONTOWN, PA
Time zone: UTC -4 (UTC -5 during Standard Time)
Zip code: 15320

Heliport Operations

Heliport use: Private use. Permission required prior to landing
Activation date: 08/1977
Control tower: no
ARTCC: CLEVELAND CENTER
FSS: ALTOONA FLIGHT SERVICE STATION
Attendance: IREG
Wind indicator: yes
Segmented circle: no

Heliport Communications

WX ASOS at MGW (13 nm S): 120.675 (304-296-7103)
WX AWOS-3 at VVS (15 nm E): 133.325 (724-626-8745)

Nearby radio navigation aids

VOR radial/distance  VOR name  Freq  Var
MGWr352/19.0MORGANTOWN VOR/DME111.6005W
AGCr179/25.1ALLEGHENY VOR/DME110.0009W
IHDr263/28.0INDIAN HEAD VORTAC108.2006W
HLGr137/36.9WHEELING VOR/DME112.2007W
CKBr026/39.6CLARKSBURG VOR/DME112.6004W

 
NDB name  Hdg/Dist  Freq  Var  ID
CAMOR272/9.529908WVV ...- ...-

Heliport Services

Airframe service: NONE
Powerplant service: NONE
Bottled oxygen: NONE
Bulk oxygen: NONE

Runway Information

Helipad H1

Dimensions: 60 x 50 ft. / 18 x 15 m
Surface: asphalt, in fair condition
Operational restrictions: HELIPAD APCH EAST TO WEST.
Latitude: 39-51.987900N
Longitude: 079-57.036617W
Elevation: 980.0 ft.
Traffic pattern: leftleft
Markings: none, in fair condition
Runway end identifier lights: no

Heliport Ownership and Management from official FAA records

Ownership: Privately-owned
Owner: GALLATIN FUEL, INC.
250 W MAIN
UNIONTOWN, PA 15401
Phone 412-966-7546
Manager: JOHN H. BAILY
PO BOX 355
CARMICHAELS, PA 15320
Phone 412-966-5435

Heliport Operational Statistics

Aircraft based on the field: 1
Helicopters: 1
    

Additional Remarks

FOR CD CTC CLARKSBURG APCH AT 304-842-6676, WHEN APCH CLSD CTC CLEVELAND ARTCC AT 440-774-0226.

Instrument Procedures

There are no published instrument procedures at 4PN3.

Some nearby airports with instrument procedures:

KWAY - Greene County Airport (9 nm W)
KMGW - Morgantown Municipal Airport-Walter L. Bill Hart Field (13 nm S)
KVVS - Joseph A Hardy Connellsville Airport (15 nm E)
KFWQ - Rostraver Airport (21 nm N)
KAFJ - Washington County Airport (22 nm NW)
 
Loc | Ops | Rwys | IFR | FBO | Links
Com | Nav | Svcs | Stats | Notes
Area around 4PN3 (Gallatin Fuel Heliport)
 
Road maps at: MapQuest Bing Google
 
Aerial photo
No photo
 
Sectional chart

 
Airport distance calculator
Flying to Gallatin Fuel Heliport? Find the distance to fly.

From to 4PN3

Sunrise and sunset
Times for 04-Aug-2020
 Local
(UTC-4)
 Zulu
(UTC)
Morning civil twilight05:5309:53
Sunrise06:2310:23
Sunset20:2800:28
Evening civil twilight20:5800:58

Current date and time
Zulu (UTC)  05-Aug-2020 00:33:50
Local (UTC-4)  04-Aug-2020 20:33:50
 
METAR
KMGW 
13nm S 
042353Z 12003KT 7SM FEW036 SCT044 SCT090 19/18 A2999 RMK AO2 RAE21 SLP150 P0011 60022 T01940178 10283 20189 51023
KAFJ 
21nm NW 
042356Z AUTO 30007KT 10SM FEW023 SCT065 OVC090 21/18 A3000 RMK AO2 RAB33E49 SLP152 P0000 60000 T02110178 10272 20211 53019
KP53 
21nm N 
042356Z AUTO 33007KT 14/11 A3007 RMK AO1 SLP183 T01440111 10172 20144 58007
TAF
KMGW 
13nm S 
041725Z 0418/0518 28008KT P6SM VCSH BKN050 TEMPO 0421/0501 4SM SHRA BKN035 FM050300 23003KT P6SM VCSH SCT060 FM050900 23003KT 3SM BR SCT005 FM051300 25003KT P6SM BKN015 FM051500 28004KT P6SM BKN035
NOTAMs
Click for the latest NOTAMs
NOTAMs are issued by the DoD/FAA and will open in a separate window not controlled by AirNav.

 

 
 

Would you like to see your business listed on this page?

 If your business provides an interesting product or service to pilots, flight crews, aircraft, or users of the Gallatin Fuel Heliport, you should consider listing it here.  To start the listing process, click on the button below
 
Add a business
 

Other Pages about Gallatin Fuel Heliport

Update a link
 
Copyright © AirNav, LLC. All rights reserved. Privacy Policy  Contact